Temp
6 6 7 7 7 7 7 7 7 7 7 7 7 8 8 8 9 9 10 10 9 9 9 9 10 10 9 10 10 10 9 11 13 13 13 12 12 12 12 12 12 11 12 12 12
6 6 6 7 7 7 7 7 7 7 7 7 7 7 8 8 8 9 9 9 9 9 9 9 8 9 9 10 9 9 10 11 12 12 12 12 11 11 11 11 11 11 12 11 12
6 6 6 6 6 7 7 7 7 7 8 8 8 8 8 8 8 9 9 8 9 9 9 8 9 8 8 8 8 9 10 11 12 12 11 11 11 11 11 11 12 11 11 11 11
5 6 6 6 6 6 6 6 7 7 7 7 8 8 8 8 7 8 9 9 9 10 9 9 9 9 9 9 8 9 10 10 10 11 11 10 10 10 11 10 12 11 10 12 12
3 3 3 3 3 3 3 4 5 5 6 7 7 7 7 7 8 8 8 9 9 9 9 9 8 9 8 9 9 9 9 9 9 9 9 9 10 11 10 10 13 12 12 12 12
2 2 1 1 1 2 2 2 2 3 4 4 5 6 6 7 7 7 7 7 7 8 8 9 8 9 8 8 9 9 9 9 9 9 10 10 10 10 10 12 13 11 12 12 11
0 0 1 1 1 1 0 0 0 0 1 1 2 4 5 7 6 6 6 7 7 7 7 7 8 8 8 7 8 8 9 9 8 9 9 10 10 10 11 12 12 12 12 11 12
-1 -1 -1 -1 -1 -1 -0 -0 -0 -0 -0 -0 -0 1 4 4 5 5 5 6 6 6 6 7 7 7 7 6 7 7 8 9 9 9 9 9 10 11 11 11 11 11 11 12 12
-1 -1 -0 -0 -0 -1 -2 -2 -1 -1 -1 -1 -1 -1 1 3 4 5 5 5 5 5 6 5 5 6 6 5 6 8 8 9 9 10 9 9 10 11 11 11 10 11 11 11 12
-1 -1 -1 -1 -1 -1 -1 -1 -1 -2 -2 -2 -2 -2 -0 0 1 1 3 4 4 4 4 5 4 4 4 6 7 9 9 9 10 11 9 9 10 10 11 10 10 10 10 10 11
-2 -2 -2 -2 -2 -2 -2 -2 -2 -4 -1 -2 -3 -1 -1 -1 -0 0 0 0 3 4 4 4 3 4 6 6 7 8 10 10 10 10 10 9 10 10 11 10 9 10 10 10 11
-3 -3 -3 -3 -4 -4 -4 -3 -3 -4 -3 -2 -1 -2 -1 -1 -2 -0 -1 -1 -1 1 1 3 3 8 6 6 7 7 8 9 10 10 9 9 9 10 10 10 9 10 10 10 11
-4 -4 -4 -4 -4 -4 -4 -4 -4 -4 -5 -1 -1 -2 -2 -1 -2 -0 -1 -1 -1 -0 1 4 7 5 6 7 7 7 7 8 9 9 9 8 8 8 9 9 10 10 10 11 12
-4 -4 -4 -4 -5 -5 -5 -5 -5 -5 -6 -3 -3 -4 -3 -3 -2 -2 -1 -1 -1 -0 1 2 5 6 6 7 7 8 7 7 7 8 8 9 10 9 10 10 10 10 10 10 11
-5 -5 -5 -5 -5 -5 -6 -6 -6 -6 -2 -3 -4 -4 -4 -3 -3 -3 -3 -2 -1 0 1 3 4 5 6 7 7 7 8 7 7 7 7 8 9 9 9 9 9 10 10 11 11
-5 -5 -5 -5 -5 -6 -6 -6 -7 -7 -2 -2 -3 -3 -3 -2 -3 -3 -3 -3 -2 -1 1 2 4 4 6 7 7 7 7 7 7 7 9 8 8 9 9 10 10 10 11 11 12
-5 -5 -4 -5 -6 -6 -6 -7 -7 -5 -3 -3 -4 -4 -3 -2 -3 -4 -3 -2 -1 -1 0 2 3 4 5 6 6 6 6 9 9 9 10 9 9 9 10 10 10 10 11 11 12
-5 -5 -5 -6 -6 -6 -6 -8 -6 -4 -4 -4 -5 -5 -3 -2 -3 -4 -3 -3 -1 -0 2 2 3 3 5 6 7 6 7 11 10 11 12 10 10 10 10 10 10 10 10 11 12
-5 -5 -6 -6 -5 -7 -7 -7 -5 -6 -6 -6 -6 -4 -3 -2 -3 -3 -3 -4 -4 -2 1 4 4 5 5 6 7 7 7 9 11 10 12 12 10 10 11 10 10 10 10 12 12
-5 -5 -6 -6 -6 -7 -7 -7 -7 -7 -7 -7 -6 -5 -4 -3 -3 -2 -3 -5 -5 -5 -4 0 2 5 5 6 7 7 7 8 9 10 10 13 11 12 12 11 11 11 12 12 12
-5 -6 -6 -7 -7 -7 -8 -8 -7 -7 -7 -7 -6 -6 -5 -4 -4 -3 -4 -5 -5 -5 -5 -2 -0 5 5 6 7 7 8 8 9 10 12 12 13 11 11 12 12 12 12 13 13
-5 -7 -7 -7 -7 -7 -8 -8 -7 -7 -7 -7 -7 -7 -6 -6 -5 -4 -3 -4 -5 -5 -4 -2 -0 3 5 6 7 8 8 8 9 9 10 12 13 11 11 11 11 11 13 13 13
-6 -6 -6 -7 -8 -8 -9 -8 -8 -8 -7 -7 -7 -7 -6 -6 -5 -5 -5 -5 -5 -5 -5 -4 -1 3 5 6 6 7 8 8 8 10 9 12 12 11 11 12 12 12 12 12 12
-6 -6 -7 -7 -8 -9 -9 -8 -7 -8 -8 -8 -7 -7 -7 -6 -5 -5 -6 -6 -5 -6 -5 -5 -3 2 6 7 7 7 8 8 8 9 10 10 11 11 11 11 11 12 12 12 12
-6 -6 -6 -7 -8 -8 -9 -9 -8 -8 -8 -7 -7 -7 -7 -7 -6 -6 -6 -6 -5 -5 -5 -4 -1 1 1 2 3 5 7 8 8 8 10 10 10 11 11 10 10 11 11 12 12
-5 -6 -6 -6 -8 -8 -8 -8 -8 -8 -8 -8 -7 -7 -7 -6 -6 -6 -6 -6 -6 -5 -5 -4 -2 1 1 2 3 4 6 7 7 8 8 9 9 9 10 10 10 11 11 12 12
-5 -5 -6 -6 -7 -8 -8 -8 -8 -8 -7 -8 -8 -8 -7 -7 -7 -7 -7 -7 -6 -6 -5 -4 -4 -1 2 3 4 5 6 7 7 7 8 8 9 9 9 10 9 11 12 12 12
Height
3133 3133 3133 3132 3132 3132 3132 3132 3132 3133 3133 3133 3134 3137 3139 3141 3143 3144 3146 3151 3152 3153 3155 3157 3158 3159 3160 3160 3161 3163 3166 3166 3166 3167 3168 3165 3167 3166 3165 3166 3166 3165 3164 3164 3162
3124 3125 3124 3123 3123 3123 3123 3122 3122 3124 3124 3125 3126 3128 3130 3132 3133 3133 3142 3143 3145 3148 3152 3153 3154 3154 3155 3157 3155 3156 3157 3160 3163 3163 3164 3164 3161 3162 3161 3162 3162 3162 3162 3159 3157
3115 3114 3113 3113 3113 3113 3113 3113 3114 3114 3114 3114 3115 3116 3119 3121 3123 3124 3129 3134 3138 3143 3147 3148 3150 3148 3147 3150 3150 3150 3145 3157 3158 3159 3159 3157 3156 3158 3156 3156 3158 3157 3156 3155 3152
3104 3103 3102 3101 3100 3101 3101 3101 3101 3102 3101 3102 3104 3106 3110 3112 3116 3110 3118 3124 3128 3134 3137 3139 3141 3141 3142 3143 3146 3143 3142 3147 3151 3153 3153 3150 3150 3147 3149 3149 3150 3149 3148 3148 3147
3096 3094 3092 3091 3090 3089 3088 3088 3089 3089 3089 3090 3091 3094 3098 3098 3098 3106 3109 3112 3116 3122 3125 3129 3132 3134 3133 3139 3140 3134 3139 3141 3143 3143 3145 3144 3141 3140 3139 3141 3143 3143 3142 3141 3140
3090 3088 3086 3083 3082 3081 3080 3077 3077 3077 3078 3079 3080 3081 3083 3083 3089 3095 3098 3102 3106 3111 3115 3118 3120 3125 3127 3129 3130 3133 3134 3135 3136 3137 3138 3138 3134 3135 3134 3136 3136 3136 3136 3136 3134
3085 3083 3080 3078 3076 3074 3072 3070 3069 3068 3068 3069 3068 3068 3067 3068 3082 3081 3087 3091 3094 3100 3104 3109 3113 3116 3118 3119 3122 3124 3125 3127 3126 3130 3129 3133 3122 3124 3129 3130 3128 3129 3128 3128 3126
3080 3078 3075 3072 3070 3068 3065 3063 3061 3061 3062 3061 3059 3056 3049 3062 3065 3071 3076 3079 3084 3089 3094 3097 3103 3106 3108 3111 3112 3115 3118 3114 3120 3123 3125 3127 3105 3120 3125 3125 3123 3121 3121 3120 3118
3076 3073 3070 3066 3063 3061 3058 3056 3054 3054 3053 3053 3052 3050 3044 3049 3056 3061 3062 3068 3076 3078 3081 3090 3094 3097 3102 3102 3106 3104 3097 3103 3114 3118 3119 3118 3099 3113 3118 3116 3114 3113 3112 3112 3111
3073 3070 3067 3064 3061 3057 3054 3051 3047 3045 3046 3045 3044 3046 3044 3045 3048 3048 3049 3053 3061 3068 3072 3075 3081 3087 3090 3091 3071 3092 3096 3101 3102 3110 3108 3108 3095 3108 3111 3109 3106 3106 3105 3105 3102
3069 3066 3063 3059 3055 3051 3050 3046 3045 3042 3040 3041 3041 3036 3039 3041 3037 3040 3041 3043 3047 3054 3054 3063 3072 3066 3054 3072 3082 3090 3090 3090 3096 3103 3102 3099 3096 3098 3104 3100 3098 3099 3100 3097 3095
3064 3061 3058 3055 3051 3047 3045 3043 3040 3037 3031 3033 3031 3026 3028 3030 3023 3034 3035 3038 3038 3041 3052 3060 3050 3031 3072 3075 3077 3081 3083 3083 3090 3095 3097 3096 3089 3090 3093 3093 3091 3090 3090 3089 3087
3059 3056 3053 3050 3046 3042 3040 3038 3035 3031 3024 3025 3021 3019 3020 3021 3017 3025 3026 3030 3033 3037 3039 3040 3020 3063 3062 3066 3069 3068 3073 3082 3085 3090 3090 3090 3082 3081 3083 3083 3080 3080 3078 3079 3080
3056 3052 3048 3045 3042 3037 3034 3032 3030 3027 3023 3019 3015 3016 3016 3015 3016 3016 3017 3024 3027 3028 3036 3037 3041 3047 3051 3051 3059 3058 3073 3079 3082 3086 3077 3087 3063 3070 3073 3070 3071 3069 3071 3071 3073
3052 3047 3044 3038 3036 3033 3031 3028 3026 3027 3022 3015 3015 3014 3015 3017 3016 3015 3014 3015 3017 3024 3031 3017 3027 3034 3037 3025 3054 3052 3069 3073 3075 3075 3075 3075 3071 3060 3065 3060 3059 3061 3062 3064 3067
3048 3043 3039 3034 3030 3028 3025 3024 3025 3028 3016 3015 3014 3015 3016 3014 3014 3012 3013 3011 3013 3018 3020 3018 3025 3026 3020 3041 3046 3058 3064 3067 3068 3070 3060 3065 3066 3057 3052 3050 3051 3054 3056 3059 3061
3045 3041 3035 3031 3028 3025 3024 3023 3025 3020 3015 3014 3013 3013 3012 3011 3010 3009 3008 3008 3008 3011 3009 3012 3014 3018 3024 3032 3039 3046 3054 3057 3058 3055 3047 3056 3055 3044 3041 3042 3043 3049 3051 3052 3057
3043 3038 3034 3030 3026 3025 3023 3024 3022 3016 3016 3014 3012 3010 3008 3006 3005 3005 3003 3000 2999 3002 3003 3008 3007 3007 3011 3014 3019 3028 3036 3033 3037 3038 3039 3045 3041 3035 3033 3035 3035 3041 3047 3049 3052
3042 3036 3032 3029 3024 3023 3023 3023 3019 3017 3016 3013 3010 3005 3002 3001 3003 3001 2999 2997 2995 2998 3000 2996 2997 2999 3005 3010 3018 3020 3024 3030 3032 3034 3033 3031 3037 3032 3029 3029 3031 3034 3040 3045 3050
3041 3037 3033 3029 3026 3023 3022 3021 3019 3017 3014 3011 3006 3004 3001 2999 2999 2996 2995 2992 2992 2991 2992 2991 2990 2991 2998 3006 3011 3012 3023 3028 3028 3027 3030 3025 3029 3028 3027 3027 3029 3033 3038 3043 3046
3040 3036 3033 3029 3026 3024 3022 3020 3018 3015 3012 3009 3005 3002 2999 2997 2996 2994 2993 2990 2988 2988 2988 2992 2992 2987 2993 2991 2993 3004 3010 3016 3021 3022 3022 3023 3023 3023 3025 3028 3031 3035 3037 3040 3043
3040 3037 3032 3029 3028 3023 3022 3020 3016 3013 3011 3006 3003 2999 2996 2994 2992 2991 2990 2987 2986 2987 2986 2990 2989 2984 2983 2989 2995 3000 3003 3010 3011 3018 3021 3020 3020 3020 3024 3027 3030 3033 3033 3036 3041
3040 3036 3032 3028 3026 3024 3020 3019 3017 3013 3009 3004 3001 2999 2995 2993 2991 2988 2987 2982 2981 2983 2983 2984 2985 2981 2981 2988 2991 2992 2998 3004 3011 3013 3018 3020 3021 3021 3022 3025 3029 3031 3033 3036 3039
3039 3036 3031 3027 3024 3022 3018 3017 3015 3012 3007 3003 2999 2996 2993 2991 2989 2987 2984 2981 2979 2979 2979 2980 2978 2976 2972 2978 2984 2986 2991 2999 3006 3008 3012 3018 3020 3022 3024 3028 3029 3031 3032 3035 3038
3039 3036 3032 3028 3024 3020 3018 3015 3012 3009 3006 3003 2998 2996 2994 2990 2987 2982 2982 2979 2977 2976 2977 2976 2974 2975 2978 2980 2981 2982 2988 2994 3000 3007 3008 3013 3017 3021 3025 3026 3029 3030 3032 3035 3037
3039 3035 3031 3026 3023 3020 3017 3015 3011 3007 3004 3000 2999 2995 2991 2989 2988 2982 2982 2979 2975 2974 2974 2973 2973 2973 2978 2981 2983 2983 2983 2990 2997 3004 3008 3011 3012 3019 3022 3024 3027 3027 3029 3034 3037
3037 3033 3029 3025 3020 3018 3017 3012 3008 3003 2999 2998 2995 2991 2988 2986 2982 2980 2978 2977 2975 2975 2973 2972 2973 2973 2974 2979 2982 2983 2982 2986 2994 3000 3003 3006 3010 3016 3017 3020 3024 3024 3027 3033 3037
Wind_Speed
33 34 36 37 37 38 40 41 41 41 42 40 38 36 38 40 40 40 39 31 27 28 23 19 21 22 25 23 22 21 20 25 23 20 17 11 8 14 15 16 16 18 23 20 23
33 34 35 36 38 39 40 42 43 44 44 43 43 42 40 40 43 47 42 40 35 34 31 26 24 24 28 28 24 26 26 31 28 21 21 19 18 16 21 20 22 20 20 23 23
35 36 37 37 38 39 40 42 43 45 45 46 46 46 44 43 43 46 46 41 39 41 37 34 35 32 31 30 31 31 44 37 34 30 28 28 28 25 25 30 30 26 23 23 26
34 35 37 38 39 39 40 42 43 44 45 45 46 47 45 45 40 41 43 45 45 43 45 42 43 43 42 39 37 44 42 35 37 36 33 31 32 33 34 31 34 31 26 26 28
31 32 33 34 35 35 35 38 40 42 45 47 48 46 44 47 52 47 43 38 41 47 45 47 48 47 45 39 38 44 38 37 36 38 36 35 39 43 40 35 36 30 25 24 31
26 27 29 30 32 33 34 36 35 38 40 42 45 48 48 52 49 44 44 44 44 41 39 42 50 49 43 40 44 41 40 41 39 40 39 39 43 40 40 37 36 29 28 30 31
22 23 24 26 27 29 31 33 34 34 32 34 37 42 50 53 40 41 39 43 44 44 40 35 37 47 49 38 39 39 41 40 37 36 40 38 45 43 40 38 37 35 32 31 40
22 22 22 22 22 22 24 28 31 33 33 33 33 38 52 42 44 43 41 40 36 44 46 45 35 35 43 29 35 32 38 44 42 36 32 31 54 41 31 29 32 32 34 39 44
22 23 24 25 26 25 24 24 24 25 28 31 33 35 47 42 38 37 42 43 41 40 41 47 41 41 37 36 34 40 47 47 40 35 36 36 55 43 33 30 28 33 38 44 47
21 22 22 24 25 26 25 26 26 25 22 22 28 30 30 29 19 15 27 41 42 46 44 40 49 37 38 41 58 45 37 41 43 32 32 39 50 39 36 34 34 33 34 41 49
23 24 25 25 26 26 25 26 25 24 21 21 21 29 22 18 19 14 24 22 38 45 52 50 39 50 65 52 42 41 39 44 42 37 38 38 43 41 37 35 35 36 37 43 44
23 23 23 23 23 24 23 22 24 26 31 24 23 30 25 23 36 31 29 23 25 40 35 35 52 73 43 43 41 41 40 45 38 32 34 35 43 41 38 39 39 40 42 38 32
22 23 23 22 23 23 22 22 24 26 30 27 25 21 15 22 30 24 32 29 24 25 39 54 66 44 43 45 44 47 45 37 38 29 27 34 42 42 40 40 41 38 36 35 25
23 24 25 24 25 23 24 22 21 20 15 16 3 2 4 2 8 11 29 30 25 33 29 42 51 31 48 49 48 50 37 34 35 30 40 32 38 45 38 39 36 34 32 29 23
26 26 25 27 25 23 22 18 14 9 6 1 4 8 3 1 6 1 10 19 36 29 25 45 30 51 42 60 44 49 29 33 31 32 35 38 36 38 28 34 36 33 24 22 21
27 26 27 28 24 19 15 11 6 4 8 2 4 5 5 7 9 8 5 14 17 35 32 38 23 28 58 33 40 31 29 26 26 27 29 32 34 38 40 39 31 22 20 20 21
25 26 25 22 17 14 10 5 4 9 6 4 7 9 12 13 12 12 12 12 18 26 42 35 40 24 25 45 34 36 34 13 16 18 16 24 23 38 29 23 24 15 14 22 17
25 24 22 20 19 11 10 4 6 6 9 16 19 18 17 13 10 10 12 13 18 29 33 37 31 39 28 44 44 49 42 25 18 14 14 23 14 24 15 18 23 21 16 19 17
25 24 21 22 16 9 7 4 6 10 9 15 18 17 15 10 10 14 10 15 9 13 29 33 41 26 28 33 43 43 50 39 12 8 10 13 17 21 16 15 14 17 22 23 18
25 22 17 17 17 8 6 6 6 11 16 16 16 8 14 14 12 10 8 11 17 9 6 16 17 31 42 32 37 41 39 36 27 15 12 10 16 12 2 8 12 21 25 23 20
23 16 18 14 15 11 7 9 13 12 14 10 12 13 15 15 16 15 9 9 17 12 11 15 9 28 34 37 43 37 43 36 31 18 13 6 8 13 11 11 16 14 19 21 18
23 11 20 16 11 12 10 14 16 13 15 15 12 10 7 10 12 12 9 11 13 15 12 17 14 18 38 38 36 37 34 40 29 26 18 12 4 2 8 13 13 13 19 20 18
23 17 19 13 12 13 14 14 14 16 16 13 12 8 12 10 7 6 6 3 7 9 3 17 20 17 17 37 32 40 34 42 24 19 27 15 5 7 10 15 14 14 19 19 15
23 17 17 13 14 14 17 8 12 13 13 14 17 10 11 9 8 8 12 9 6 4 9 5 23 23 10 35 30 37 40 36 35 24 19 27 15 10 11 9 10 13 18 16 12
21 18 18 15 14 15 12 11 13 15 13 13 9 11 15 12 16 7 17 16 6 7 7 6 23 31 16 6 10 19 36 32 38 30 24 19 27 16 15 6 4 5 15 18 13
18 19 19 15 14 15 12 11 14 17 17 10 12 16 16 16 16 21 17 14 7 2 6 2 7 27 24 13 7 11 22 36 32 31 28 18 19 16 17 13 5 6 17 20 12
20 21 22 16 15 14 11 14 17 16 12 12 16 17 15 13 14 18 18 17 12 8 8 4 2 16 26 19 9 13 17 29 31 30 30 29 23 6 8 12 3 7 24 20 12
Wind_Direction
267 266 266 267 266 264 262 260 258 260 261 262 261 257 255 253 253 249 246 240 244 248 244 232 230 227 232 231 235 240 241 249 245 251 260 268 241 229 232 238 258 264 268 277 280
271 268 266 264 263 262 261 260 260 259 259 258 260 260 257 254 251 248 246 243 240 245 247 249 237 233 237 239 243 245 249 249 248 248 268 262 264 262 276 276 271 272 279 279 280
273 272 271 270 267 264 261 259 258 259 258 258 258 258 259 259 258 258 247 246 242 243 244 246 249 247 244 242 239 249 256 254 254 256 269 264 264 269 275 275 277 277 277 275 281
278 276 273 272 270 267 264 264 263 261 260 259 255 255 255 255 257 255 254 246 242 242 239 237 244 242 244 242 243 249 251 249 251 257 262 264 275 273 270 273 281 278 285 275 279
289 288 286 283 281 279 276 271 265 261 259 258 260 258 253 251 248 250 254 251 247 240 241 239 237 243 241 244 244 247 253 249 257 258 257 265 269 274 274 274 275 280 285 290 292
295 293 290 288 286 284 281 278 276 271 266 261 257 257 256 251 250 248 248 246 247 244 240 236 236 235 240 243 243 252 253 258 256 257 259 265 268 270 268 273 271 282 280 290 295
307 304 301 297 293 288 283 279 275 273 273 270 268 261 255 253 252 247 245 245 242 239 237 240 234 233 236 240 245 244 250 248 252 253 254 263 264 262 270 272 271 278 283 295 304
319 319 318 314 308 301 291 282 278 277 274 274 273 269 264 262 252 249 243 238 237 236 237 236 230 233 228 231 241 242 244 249 247 249 252 251 261 258 266 269 270 274 284 293 303
321 322 322 320 319 317 311 302 293 284 278 274 273 272 278 274 266 254 245 241 232 230 229 231 234 235 230 233 244 237 240 242 251 249 254 243 259 262 268 263 260 277 287 293 299
316 315 313 311 310 308 308 308 307 303 295 284 273 274 273 269 245 231 243 236 228 228 227 221 220 226 228 222 228 230 238 247 251 250 244 247 259 259 257 263 268 277 289 293 293
312 311 310 309 308 307 307 309 320 321 297 290 271 271 258 258 250 224 241 241 226 220 223 221 208 217 225 225 236 240 241 247 251 249 248 250 259 264 264 262 270 276 283 289 288
320 318 317 315 312 309 310 306 304 300 295 292 287 274 273 258 257 238 251 248 235 222 213 212 216 232 226 227 232 234 239 244 251 249 248 259 261 262 261 265 270 278 280 280 278
332 330 326 322 317 313 309 306 304 303 306 301 291 275 268 251 258 248 238 239 231 226 215 212 229 223 224 226 228 233 233 240 245 248 254 260 267 267 267 267 270 271 269 278 257
331 328 328 327 322 320 311 309 303 304 306 289 219 156 343 310 292 275 239 230 231 229 223 227 228 226 221 227 224 233 233 239 246 250 253 254 268 271 270 264 262 262 269 265 249
332 329 331 327 322 316 313 311 300 311 279 284 203 223 280 218 309 276 234 226 225 222 214 224 225 220 223 226 222 231 232 235 244 250 262 257 260 269 268 267 267 269 257 247 240
336 335 334 332 331 325 320 317 297 239 247 281 215 253 276 274 281 290 244 257 235 225 226 232 230 220 223 225 222 222 223 231 239 246 251 255 254 268 264 265 269 268 253 223 225
340 339 342 348 346 343 342 334 263 248 314 263 273 283 282 279 272 282 281 255 233 214 224 228 226 229 220 216 214 201 193 200 222 226 253 249 246 256 262 258 256 244 210 217 219
346 346 354 355 342 339 343 344 271 318 285 285 297 294 280 280 280 304 285 270 234 221 225 222 229 217 210 206 199 198 191 205 215 229 244 223 241 243 257 263 250 232 206 202 204
348 351 354 352 349 315 343 271 315 320 312 307 304 275 267 236 276 284 283 277 262 213 234 217 231 214 211 201 200 199 209 208 233 249 255 189 245 260 270 262 239 214 198 196 205
351 351 350 355 360 352 328 285 316 318 311 309 300 276 278 273 277 283 287 280 289 209 253 234 249 216 201 194 200 205 199 200 211 225 218 231 250 242 299 212 189 180 187 196 207
356 356 349 351 354 12 3 327 321 317 316 312 302 296 284 278 273 275 283 275 308 291 250 225 243 209 197 198 194 191 200 206 211 221 204 237 234 253 235 207 181 192 200 206 212
3 3 352 350 352 341 341 329 330 327 328 308 298 291 313 286 273 257 266 277 302 317 226 206 232 245 208 204 200 198 202 197 196 198 225 228 225 276 195 172 178 190 192 193 174
2 1 1 357 351 344 333 321 308 316 322 317 310 298 307 295 297 275 281 321 274 312 272 200 220 225 213 203 205 208 204 201 201 188 203 204 218 182 197 157 161 164 165 164 165
359 5 358 350 340 336 337 345 327 328 318 328 310 304 329 314 279 283 300 325 250 263 338 199 218 224 208 192 195 202 202 200 200 205 193 209 192 167 152 160 186 169 169 171 166
359 351 358 349 350 348 334 326 334 333 327 325 314 325 328 318 314 270 337 330 255 242 288 236 218 217 236 252 224 215 205 200 205 209 217 202 217 207 180 125 127 183 186 179 175
357 351 353 3 357 351 346 329 320 323 319 306 302 314 314 299 295 304 305 318 347 206 297 201 221 219 234 239 225 212 213 206 207 207 216 214 223 220 228 241 259 244 190 185 167
360 354 352 358 353 342 338 337 332 333 330 301 293 311 315 305 296 289 282 279 302 301 333 13 116 217 225 209 205 220 208 204 206 208 214 219 224 227 216 211 252 212 172 174 169